[[{"header":{"parameterUnit":"m.s-1","parameterCategory":1,"la1":30.2991,"la2":30.254,"lo1":-89.0895,"lo2":-89.0444,"dy":0.0017,"dx":0.0017,"nx":28,"ny":28,"refTime":"2024-06-06T09:00:00:Z","depth":0,"parameterNumber":2,"parameterNumberName":"U-component_of_WINDS"},"data":[0,0,0,0,0,0,0,0,0,0,0,0,0,0,0,0,0,0,0,0,0,0,0,0,0,0,0,0,0,0,0,0,0,0,0,0,0,0,0,0,0,0,0,0,0,0,0,0,0,0,0,0,0,0,0,0,0,0,0.6887,0.6889,0,0.7022,0.7024,0.7025,0.7087,0.7087,0.7087,0.7087,0.7227,0.723,0.7234,0,0,0,0,0,0,0,0,0,0,0,0,0,0.6683,0.6686,0.6887,0.6889,0.6891,0.7022,0.7024,0.7026,0.7087,0.7087,0.7087,0.7087,0.7225,0.723,0.7234,0,0,0,0,0,0,0,0,0,0,0,0,0,0.679,0.6687,0.6887,0.6937,0.6943,0.7022,0.7024,0.7026,0.7087,0.7087,0.7087,0.7087,0.7224,0.7229,0.7235,0.7275,0,0,0.7253,0.7255,0,0,0,0,0,0,0,0,0.6784,0.6797,0.6928,0.6934,0.694,0.7038,0.7003,0.711,0.7087,0.7032,0.7087,0.7086,0.7164,0.7175,0.72,0.7281,0.7287,0.7253,0.7257,0.7259,0.7261,0,0,0,0,0,0,0,0.6776,0.6792,0.6941,0.693,0.6937,0.6953,0.6968,0.7024,0.7098,0.7037,0.7042,0.7057,0.7167,0.7195,0.7204,0.7289,0.7253,0.7258,0.7262,0.7264,0.7408,0.7409,0,0,0,0,0,0,0.6761,0.6785,0.6937,0.6945,0.686,0.6957,0.6973,0.7007,0.7097,0.7111,0.7057,0.7059,0.7185,0.7197,0.7209,0.7262,0.7259,0.7265,0.7268,0.7408,0.7409,0.7409,0,0,0,0,0,0,0.6756,0.6773,0.6931,0.6866,0.6888,0.696,0.6997,0.7009,0.7037,0.7112,0.7126,0.7071,0.7185,0.7201,0.7258,0.7267,0.7267,0.7272,0.7408,0.7408,0.7409,0.7366,0,0,0,0,0,0,0.675,0.6771,0.6787,0.6866,0.6891,0.6977,0.6998,0.7012,0.7047,0.7051,0.7129,0.7142,0.7186,0.7249,0.7263,0.7275,0.7277,0.7407,0.7408,0.7409,0.7367,0.7365,0.7363,0,0,0,0,0,0.6742,0.6771,0.6788,0.6806,0.6912,0.6977,0.6992,0.7041,0.7047,0.7064,0.7112,0.714,0.7263,0.7254,0.7271,0.7285,0.7407,0.7408,0.7408,0.7368,0.7365,0.7363,0,0,0,0,0,0,0.6692,0.6782,0.6802,0.6857,0.6909,0.6988,0.701,0.7037,0.709,0.7091,0.7151,0.7168,0.7219,0.7258,0.7246,0.7327,0.7338,0.7342,0.7301,0.7299,0.7297,0.7287,0.7282,0,0,0,0,0,0.6687,0.6732,0.6808,0.6849,0.6874,0.6937,0.6968,0.7001,0.7058,0.708,0.7133,0.7187,0.7238,0.7271,0.7322,0.7372,0.739,0.739,0.7388,0.7386,0.7389,0.7418,0.7419,0.7412,0.7412,0.7412,0,0,0.6677,0.6732,0.6757,0.684,0.6885,0.693,0.6956,0.7003,0.7037,0.7088,0.7144,0.7184,0.7249,0.7302,0.7328,0.7335,0.7395,0.7387,0.7385,0.739,0.7419,0.742,0.742,0.7412,0.7412,0.7412,0,0,0.6683,0.6729,0.6768,0.6811,0.6878,0.692,0.6928,0.7003,0.7031,0.7089,0.7127,0.7169,0.7255,0.73,0.7333,0.7353,0.7381,0.7368,0.736,0.7387,0.7388,0.7388,0.7395,0.7397,0.7371,0.7371,0.7371,0,0.6664,0.6734,0.6785,0.683,0.6865,0.6911,0.6951,0.699,0.707,0.7093,0.71,0.7209,0.7256,0.7319,0.7324,0.735,0.7362,0.736,0.7383,0.7385,0.7386,0.7394,0.7396,0.7369,0.7369,0.737,0.737,0,0.6706,0.6753,0.6776,0.6851,0.6889,0.6931,0.6988,0.702,0.705,0.709,0.7147,0.7205,0.7268,0.7285,0.7315,0.7353,0.7355,0.7372,0.7384,0.7384,0.7392,0.7395,0.7366,0.7367,0.7368,0.7368,0,0,0.6686,0.6787,0.6794,0.6829,0.6904,0.6942,0.6986,0.7047,0.7073,0.7125,0.7163,0.7235,0.725,0.7288,0.7323,0.7347,0.7358,0.736,0.7363,0.7358,0.7403,0.7391,0.7393,0.7376,0.7377,0.7378,0.7398,0,0.6702,0.6782,0.6829,0.689,0.6934,0.6978,0.7016,0.7066,0.7104,0.7148,0.7191,0.724,0.7256,0.7279,0.7305,0.7351,0.7368,0.7351,0.7413,0.7414,0.7396,0.7398,0.7385,0.7401,0.7401,0.7402,0.7402,0,0.6733,0.6784,0.6849,0.6919,0.6939,0.6972,0.7031,0.7072,0.7129,0.7156,0.7197,0.7232,0.7279,0.7285,0.7351,0.7338,0.7366,0.7392,0.7394,0.7402,0.7409,0.7406,0.7408,0.741,0.7408,0.7407,0.7407,0,0.6712,0.6797,0.6847,0.6874,0.6957,0.6979,0.7014,0.7072,0.7105,0.7156,0.7178,0.7234,0.7265,0.7308,0.7356,0.7357,0.7417,0.7428,0.744,0.7439,0.7452,0.745,0.7458,0.7468,0.7468,0.7468,0.7468,0,0.6727,0.6765,0.6838,0.6869,0.6912,0.6965,0.7006,0.7045,0.7095,0.7134,0.7175,0.7211,0.7272,0.7315,0.7353,0.7402,0.7415,0.7438,0.7448,0.7435,0.7432,0.7454,0.7455,0.7469,0.7469,0.7469,0.7468,0,0.6711,0.6762,0.6819,0.6891,0.691,0.6939,0.7002,0.7033,0.7072,0.7121,0.7135,0.7198,0.7251,0.7303,0.7374,0.7399,0.7447,0.746,0.7427,0.7433,0.7442,0.744,0.7465,0.7471,0.7476,0.7476,0.7476,0,0.6717,0.6747,0.6823,0.6851,0.6886,0.6931,0.6965,0.7017,0.705,0.7117,0.714,0.7195,0.7242,0.7324,0.7376,0.743,0.7445,0.7449,0.7453,0.7439,0.7445,0.7443,0.7446,0.7448,0.7448,0.7448,0.7447,0,0.6723,0.6746,0.6793,0.6848,0.6887,0.6933,0.6981,0.7002,0.7063,0.7098,0.7152,0.7188,0.726,0.7314,0.7374,0.741,0.7439,0.7445,0.7451,0.7439,0.7419,0.743,0.7423,0.7445,0.7445,0.7445,0.7446,0.7446,0.6719,0.6748,0.6805,0.6855,0.6896,0.6939,0.6972,0.7015,0.706,0.7122,0.715,0.7204,0.726,0.7343,0.7378,0.7421,0.7428,0.7437,0.7439,0.744,0.7437,0.7411,0.7432,0.7432,0.7432,0.7432,0.7432,0,0.6727,0.6765,0.6811,0.6876,0.6915,0.6938,0.6991,0.7023,0.7069,0.7119,0.7163,0.7224,0.7277,0.7332,0.7387,0.7411,0.7425,0.7423,0.7423,0.743,0.7427,0.7417,0.7411,0.7411,0.7411,0.7411,0.7411,0.7411,0.6736,0.6785,0.6815,0.6884,0.6923,0.6975,0.7004,0.7043,0.7083,0.7149,0.7192,0.7227,0.7279,0.7338,0.7386,0.7401,0.742,0.7414,0.7433,0.7429,0.7431,0.7432,0.7423,0.7418,0.7418,0.7433,0.7433,0.7433]},{"header":{"parameterUnit":"m.s-1","parameterCategory":1,"la1":30.2991,"la2":30.254,"lo1":-89.0895,"lo2":-89.0444,"dy":0.0017,"dx":0.0017,"nx":28,"ny":28,"refTime":"2024-06-06T09:00:00:Z","depth":0,"parameterNumber":3,"parameterNumberName":"V-component_of_WINDS"},"data":[0,0,0,0,0,0,0,0,0,0,0,0,0,0,0,0,0,0,0,0,0,0,0,0,0,0,0,0,0,0,0,0,0,0,0,0,0,0,0,0,0,0,0,0,0,0,0,0,0,0,0,0,0,0,0,0,0,0,2.5838,2.5838,0,2.5844,2.5844,2.5844,2.5891,2.5892,2.5893,2.5894,2.5896,2.5895,2.5894,0,0,0,0,0,0,0,0,0,0,0,0,0,2.586,2.586,2.5838,2.5838,2.5838,2.5844,2.5844,2.5844,2.589,2.5892,2.5893,2.5894,2.5897,2.5895,2.5894,0,0,0,0,0,0,0,0,0,0,0,0,0,2.5857,2.5859,2.5838,2.5862,2.5864,2.5844,2.5844,2.5844,2.589,2.5892,2.5894,2.5895,2.5897,2.5895,2.5894,2.585,0,0,2.5889,2.5889,0,0,0,0,0,0,0,0,2.5857,2.5856,2.5858,2.586,2.5862,2.5869,2.5853,2.5846,2.589,2.588,2.5894,2.5896,2.5885,2.5885,2.5882,2.5851,2.5851,2.5889,2.5888,2.5888,2.5887,0,0,0,0,0,0,0,2.5857,2.5856,2.584,2.5858,2.5861,2.5871,2.5872,2.5852,2.5873,2.5881,2.5884,2.5885,2.5887,2.5884,2.5883,2.5851,2.5889,2.5888,2.5887,2.5886,2.5782,2.5781,0,0,0,0,0,0,2.5855,2.5856,2.584,2.584,2.5864,2.5869,2.587,2.5865,2.5873,2.5876,2.5883,2.5887,2.5885,2.5884,2.5883,2.5832,2.5888,2.5886,2.5885,2.5784,2.5782,2.578,0,0,0,0,0,0,2.5855,2.5853,2.584,2.5849,2.5848,2.5867,2.586,2.5864,2.5861,2.5875,2.5878,2.5876,2.5887,2.5885,2.5858,2.5832,2.5886,2.5884,2.5786,2.5783,2.5781,2.5729,0,0,0,0,0,0,2.5855,2.5853,2.5837,2.5848,2.5848,2.5816,2.5858,2.5863,2.5859,2.5863,2.587,2.5872,2.5888,2.586,2.5857,2.5831,2.5883,2.5789,2.5785,2.5782,2.5733,2.5725,2.5718,0,0,0,0,0,2.5856,2.5822,2.5836,2.5834,2.5829,2.5815,2.5814,2.5834,2.5856,2.584,2.5849,2.5872,2.5836,2.5857,2.5854,2.5827,2.579,2.5786,2.5782,2.5736,2.5726,2.5718,0,0,0,0,0,0,2.5806,2.5824,2.584,2.5809,2.581,2.5822,2.5803,2.5823,2.5817,2.5821,2.5845,2.5846,2.5815,2.5819,2.5842,2.5785,2.5817,2.5812,2.5783,2.5774,2.5766,2.5766,2.5882,0,0,0,0,0,2.5791,2.5779,2.5795,2.5766,2.5766,2.5784,2.5779,2.5794,2.5796,2.5796,2.5803,2.5803,2.5791,2.5783,2.5773,2.5734,2.5735,2.5714,2.5706,2.57,2.5695,2.5673,2.5663,2.5766,2.5766,2.5766,0,0,2.576,2.5769,2.576,2.5756,2.5759,2.5744,2.5784,2.5768,2.5757,2.5793,2.5768,2.5773,2.5774,2.5741,2.5726,2.5743,2.5667,2.5695,2.5689,2.5688,2.5668,2.5658,2.5649,2.5763,2.5764,2.5764,0,0,2.5697,2.5703,2.5679,2.5681,2.5685,2.5698,2.5692,2.5701,2.5707,2.5683,2.5709,2.5696,2.5676,2.5675,2.5672,2.5608,2.5628,2.5604,2.5564,2.5542,2.5534,2.5527,2.5503,2.5494,2.56,2.5599,2.5599,0,2.5658,2.5639,2.5663,2.5645,2.5642,2.5676,2.565,2.5651,2.5651,2.5647,2.5666,2.5641,2.5644,2.5611,2.5595,2.5592,2.5584,2.5603,2.5533,2.5527,2.552,2.5497,2.5488,2.5596,2.5597,2.5597,2.5597,0,2.559,2.5576,2.5556,2.5557,2.5551,2.5529,2.5549,2.554,2.5556,2.5566,2.554,2.5545,2.5537,2.553,2.5545,2.5498,2.5508,2.553,2.5562,2.5507,2.5486,2.5477,2.5592,2.5593,2.5594,2.5595,0,0,2.5494,2.5509,2.5501,2.5501,2.5509,2.5498,2.5477,2.547,2.5461,2.546,2.5442,2.5424,2.5445,2.5441,2.5456,2.5437,2.5385,2.5462,2.5462,2.5446,2.5332,2.5314,2.5304,2.5399,2.5397,2.5396,2.5331,0,2.5432,2.5399,2.542,2.5383,2.5369,2.5401,2.5383,2.5384,2.5393,2.5382,2.5391,2.5377,2.5406,2.5404,2.5387,2.5395,2.5362,2.54,2.538,2.5379,2.5378,2.5293,2.5275,2.5213,2.5323,2.5322,2.5321,0,2.5356,2.5353,2.5314,2.5324,2.5319,2.5302,2.5297,2.5287,2.5288,2.5296,2.5292,2.5311,2.529,2.5323,2.5292,2.5318,2.5311,2.5313,2.5311,2.5309,2.5346,2.5287,2.5194,2.5185,2.5308,2.5309,2.531,0,2.5288,2.5274,2.5249,2.5249,2.5259,2.5247,2.525,2.5254,2.5248,2.5243,2.5239,2.5231,2.5227,2.5219,2.5235,2.5258,2.5202,2.5237,2.5206,2.5205,2.5191,2.5192,2.5095,2.5189,2.5189,2.5189,2.5189,0,2.5216,2.5191,2.5219,2.5204,2.5176,2.52,2.5171,2.5178,2.5181,2.5166,2.5193,2.5178,2.5201,2.5187,2.52,2.5171,2.5169,2.5173,2.5177,2.517,2.517,2.5165,2.5169,2.5187,2.5187,2.5188,2.5188,0,2.5136,2.5154,2.5128,2.5141,2.5143,2.5122,2.5132,2.5117,2.5128,2.5109,2.5105,2.5121,2.5107,2.5123,2.5109,2.5118,2.5079,2.509,2.5079,2.5082,2.5049,2.5052,2.4945,2.4932,2.5035,2.5034,2.5034,0,2.5088,2.507,2.508,2.5073,2.5076,2.5063,2.5058,2.508,2.5073,2.5074,2.5058,2.5047,2.5039,2.5014,2.5023,2.5013,2.5022,2.4985,2.502,2.5014,2.502,2.502,2.5018,2.4978,2.4977,2.4976,2.4975,0,2.5001,2.5011,2.5003,2.4998,2.4991,2.4988,2.4986,2.4978,2.5002,2.4992,2.4979,2.4972,2.4959,2.4946,2.4939,2.4941,2.496,2.4964,2.4956,2.4949,2.4943,2.4944,2.5058,2.4966,2.4967,2.4967,2.4968,2.4968,2.4935,2.492,2.4925,2.4915,2.4917,2.4914,2.4901,2.4911,2.49,2.4892,2.4906,2.4888,2.489,2.4882,2.4881,2.4866,2.4882,2.4871,2.4867,2.4864,2.4859,2.4946,2.4865,2.4865,2.4866,2.4866,2.4866,0,2.4849,2.4854,2.4844,2.4842,2.4834,2.4856,2.4855,2.4846,2.4831,2.4831,2.4823,2.4806,2.4794,2.4803,2.4792,2.4779,2.4788,2.4775,2.4776,2.4775,2.4846,2.4854,2.4768,2.4768,2.4768,2.4768,2.4768,2.4768,2.4803,2.4778,2.4788,2.4764,2.4769,2.4754,2.4751,2.4749,2.4749,2.473,2.4721,2.4727,2.473,2.472,2.4709,2.4712,2.4706,2.469,2.4695,2.4761,2.4771,2.478,2.4787,2.4688,2.4688,2.4626,2.4625,2.4625]}]]